Year,Month,Day,Hour,Minute,Value (Times are PST for temperature in C)
2017,10,30,00,00,11.70
2017,10,30,00,01,11.70
2017,10,30,00,02,11.60
2017,10,30,00,03,11.60
2017,10,30,00,04,11.50
2017,10,30,00,05,11.50
2017,10,30,00,06,11.40
2017,10,30,00,07,11.40
2017,10,30,00,08,11.40
2017,10,30,00,09,11.30
2017,10,30,00,10,11.40
2017,10,30,00,11,11.40
2017,10,30,00,12,11.40
2017,10,30,00,13,11.40
2017,10,30,00,14,11.40
2017,10,30,00,15,11.40
2017,10,30,00,16,11.40
2017,10,30,00,17,11.40
2017,10,30,00,18,11.50
2017,10,30,00,19,11.50
2017,10,30,00,20,11.50
2017,10,30,00,21,11.50
2017,10,30,00,22,11.50
2017,10,30,00,23,11.60
2017,10,30,00,24,11.60
2017,10,30,00,25,11.60
2017,10,30,00,26,11.70
2017,10,30,00,27,11.70
2017,10,30,00,28,11.70
2017,10,30,00,29,11.70
2017,10,30,00,30,11.70
2017,10,30,00,31,11.70
2017,10,30,00,32,11.70
2017,10,30,00,33,11.60
2017,10,30,00,34,11.60
2017,10,30,00,35,11.50
2017,10,30,00,36,11.50
2017,10,30,00,37,11.40
2017,10,30,00,38,11.30
2017,10,30,00,39,11.20
2017,10,30,00,40,11.20
2017,10,30,00,41,11.10
2017,10,30,00,42,11.10
2017,10,30,00,43,11.00
2017,10,30,00,44,11.00
2017,10,30,00,45,11.00
2017,10,30,00,46,11.00
2017,10,30,00,47,11.00
2017,10,30,00,48,11.00
2017,10,30,00,49,11.10
2017,10,30,00,50,11.10
2017,10,30,00,51,11.10
2017,10,30,00,52,11.10
2017,10,30,00,53,11.00
2017,10,30,00,54,11.10
2017,10,30,00,55,11.10
2017,10,30,00,56,11.10
2017,10,30,00,57,11.00
2017,10,30,00,58,11.10
2017,10,30,00,59,11.10
2017,10,30,01,00,11.20
2017,10,30,01,01,11.20
2017,10,30,01,02,11.20
2017,10,30,01,03,11.30
2017,10,30,01,04,11.30
2017,10,30,01,05,11.30
2017,10,30,01,06,11.30
2017,10,30,01,07,11.30
2017,10,30,01,08,11.20
2017,10,30,01,09,11.20
2017,10,30,01,10,11.30
2017,10,30,01,11,11.30
2017,10,30,01,12,11.40
2017,10,30,01,13,11.40
2017,10,30,01,14,11.50
2017,10,30,01,15,11.50
2017,10,30,01,16,11.60
2017,10,30,01,17,11.60
2017,10,30,01,18,11.60
2017,10,30,01,19,11.60
2017,10,30,01,20,11.60
2017,10,30,01,21,11.60
2017,10,30,01,22,11.60
2017,10,30,01,23,11.70
2017,10,30,01,24,11.70
2017,10,30,01,25,11.70
2017,10,30,01,26,11.70
2017,10,30,01,27,11.70
2017,10,30,01,28,11.70
2017,10,30,01,29,11.80
2017,10,30,01,30,11.80
2017,10,30,01,31,11.80
2017,10,30,01,32,11.90
2017,10,30,01,33,11.90
2017,10,30,01,34,11.90
2017,10,30,01,35,11.80
2017,10,30,01,36,11.70
2017,10,30,01,37,11.70
2017,10,30,01,38,11.70
2017,10,30,01,39,11.70
2017,10,30,01,40,11.60
2017,10,30,01,41,11.50
2017,10,30,01,42,11.50
2017,10,30,01,43,11.40
2017,10,30,01,44,11.40
2017,10,30,01,45,11.40
2017,10,30,01,46,11.40
2017,10,30,01,47,11.50
2017,10,30,01,48,11.50
2017,10,30,01,49,11.50
2017,10,30,01,50,11.50
2017,10,30,01,51,11.40
2017,10,30,01,52,11.30
2017,10,30,01,53,11.30
2017,10,30,01,54,11.20
2017,10,30,01,55,11.10
2017,10,30,01,56,11.10
2017,10,30,01,57,11.10
2017,10,30,01,58,11.10
2017,10,30,01,59,11.10
2017,10,30,02,00,11.10
2017,10,30,02,01,11.00
2017,10,30,02,02,11.00
2017,10,30,02,03,10.90
2017,10,30,02,04,11.00
2017,10,30,02,05,11.00
2017,10,30,02,06,11.00
2017,10,30,02,07,10.90
2017,10,30,02,08,10.90
2017,10,30,02,09,10.90
2017,10,30,02,10,10.90
2017,10,30,02,11,10.90
2017,10,30,02,12,10.90
2017,10,30,02,13,10.90
2017,10,30,02,14,10.90
2017,10,30,02,15,10.90
2017,10,30,02,16,10.90
2017,10,30,02,17,11.00
2017,10,30,02,18,11.00
2017,10,30,02,19,11.00
2017,10,30,02,20,11.00
2017,10,30,02,21,11.00
2017,10,30,02,22,11.10
2017,10,30,02,23,11.00
2017,10,30,02,24,11.00
2017,10,30,02,25,11.00
2017,10,30,02,26,11.00
2017,10,30,02,27,11.00
2017,10,30,02,28,11.00
2017,10,30,02,29,11.00
2017,10,30,02,30,11.00
2017,10,30,02,31,11.10
2017,10,30,02,32,11.10
2017,10,30,02,33,11.10
2017,10,30,02,34,11.10
2017,10,30,02,35,11.10
2017,10,30,02,36,11.20
2017,10,30,02,37,11.20
2017,10,30,02,38,11.10
2017,10,30,02,39,11.10
2017,10,30,02,40,11.10
2017,10,30,02,41,11.10
2017,10,30,02,42,11.10
2017,10,30,02,43,11.10
2017,10,30,02,44,11.00
2017,10,30,02,45,11.00
2017,10,30,02,46,11.00
2017,10,30,02,47,11.00
2017,10,30,02,48,11.00
2017,10,30,02,49,11.00
2017,10,30,02,50,11.00
2017,10,30,02,51,10.90
2017,10,30,02,52,10.90
2017,10,30,02,53,10.90
2017,10,30,02,54,10.90
2017,10,30,02,55,10.90
2017,10,30,02,56,10.90
2017,10,30,02,57,10.90
2017,10,30,02,58,10.90
2017,10,30,02,59,10.90
2017,10,30,03,00,10.90
2017,10,30,03,01,10.90
2017,10,30,03,02,10.90
2017,10,30,03,03,10.90
2017,10,30,03,04,10.90
2017,10,30,03,05,10.90
2017,10,30,03,06,10.80
2017,10,30,03,07,10.80
2017,10,30,03,08,10.70
2017,10,30,03,09,10.70
2017,10,30,03,10,10.60
2017,10,30,03,11,10.50
2017,10,30,03,12,10.50
2017,10,30,03,13,10.40
2017,10,30,03,14,10.40
2017,10,30,03,15,10.30
2017,10,30,03,16,10.30
2017,10,30,03,17,10.30
2017,10,30,03,18,10.20
2017,10,30,03,19,10.20
2017,10,30,03,20,10.20
2017,10,30,03,21,10.20
2017,10,30,03,22,10.20
2017,10,30,03,23,10.10
2017,10,30,03,24,10.10
2017,10,30,03,25,10.10
2017,10,30,03,26,10.10
2017,10,30,03,27,10.10
2017,10,30,03,28,10.10
2017,10,30,03,29,10.10
2017,10,30,03,30,10.10
2017,10,30,03,31,10.00
2017,10,30,03,32,10.00
2017,10,30,03,33,10.00
2017,10,30,03,34,10.00
2017,10,30,03,35,10.00
2017,10,30,03,36,10.00
2017,10,30,03,37,10.00
2017,10,30,03,38,9.90
2017,10,30,03,39,9.90
2017,10,30,03,40,9.90
2017,10,30,03,41,9.90
2017,10,30,03,42,9.90
2017,10,30,03,43,9.90
2017,10,30,03,44,9.90
2017,10,30,03,45,9.90
2017,10,30,03,46,9.80
2017,10,30,03,47,9.80
2017,10,30,03,48,9.80
2017,10,30,03,49,9.80
2017,10,30,03,50,9.80
2017,10,30,03,51,9.80
2017,10,30,03,52,9.80
2017,10,30,03,53,9.80
2017,10,30,03,54,9.80
2017,10,30,03,55,9.80
2017,10,30,03,56,9.80
2017,10,30,03,57,9.90
2017,10,30,03,58,9.90
2017,10,30,03,59,9.90
2017,10,30,04,00,9.90
2017,10,30,04,01,9.90
2017,10,30,04,02,9.90
2017,10,30,04,03,9.90
2017,10,30,04,04,9.90
2017,10,30,04,05,9.90
2017,10,30,04,06,9.80
2017,10,30,04,07,9.80
2017,10,30,04,08,9.80
2017,10,30,04,09,9.80
2017,10,30,04,10,9.80
2017,10,30,04,11,9.80
2017,10,30,04,12,9.90
2017,10,30,04,13,9.90
2017,10,30,04,14,9.90
2017,10,30,04,15,9.90
2017,10,30,04,16,9.90
2017,10,30,04,17,9.90
2017,10,30,04,18,10.00
2017,10,30,04,19,10.00
2017,10,30,04,20,9.90
2017,10,30,04,21,9.90
2017,10,30,04,22,9.90
2017,10,30,04,23,9.90
2017,10,30,04,24,9.90
2017,10,30,04,25,9.90
2017,10,30,04,26,9.90
2017,10,30,04,27,9.90
2017,10,30,04,28,9.90
2017,10,30,04,29,9.90
2017,10,30,04,30,9.80
2017,10,30,04,31,9.80
2017,10,30,04,32,9.80
2017,10,30,04,33,9.80
2017,10,30,04,34,9.80
2017,10,30,04,35,9.80
2017,10,30,04,36,9.80
2017,10,30,04,37,9.80
2017,10,30,04,38,9.80
2017,10,30,04,39,9.80
2017,10,30,04,40,9.80
2017,10,30,04,41,9.80
2017,10,30,04,42,9.80
2017,10,30,04,43,9.70
2017,10,30,04,44,9.70
2017,10,30,04,45,9.70
2017,10,30,04,46,9.70
2017,10,30,04,47,9.70
2017,10,30,04,48,9.60
2017,10,30,04,49,9.60
2017,10,30,04,50,9.60
2017,10,30,04,51,9.60
2017,10,30,04,52,9.60
2017,10,30,04,53,9.60
2017,10,30,04,54,9.60
2017,10,30,04,55,9.60
2017,10,30,04,56,9.60
2017,10,30,04,57,9.60
2017,10,30,04,58,9.60
2017,10,30,04,59,9.50
2017,10,30,05,00,9.50
2017,10,30,05,01,9.50
2017,10,30,05,02,9.40
2017,10,30,05,03,9.40
2017,10,30,05,04,9.40
2017,10,30,05,05,9.40
2017,10,30,05,06,9.30
2017,10,30,05,07,9.30
2017,10,30,05,08,9.30
2017,10,30,05,09,9.30
2017,10,30,05,10,9.40
2017,10,30,05,11,9.40
2017,10,30,05,12,9.40
2017,10,30,05,13,9.40
2017,10,30,05,14,9.40
2017,10,30,05,15,9.40
2017,10,30,05,16,9.50
2017,10,30,05,17,9.50
2017,10,30,05,18,9.60
2017,10,30,05,19,9.60
2017,10,30,05,20,9.60
2017,10,30,05,21,9.60
2017,10,30,05,22,9.60
2017,10,30,05,23,9.60
2017,10,30,05,24,9.60
2017,10,30,05,25,9.70
2017,10,30,05,26,9.70
2017,10,30,05,27,9.70
2017,10,30,05,28,9.70
2017,10,30,05,29,9.60
2017,10,30,05,30,9.60
2017,10,30,05,31,9.60
2017,10,30,05,32,9.60
2017,10,30,05,33,9.50
2017,10,30,05,34,9.50
2017,10,30,05,35,9.50
2017,10,30,05,36,9.60
2017,10,30,05,37,9.50
2017,10,30,05,38,9.50
2017,10,30,05,39,9.50
2017,10,30,05,40,9.50
2017,10,30,05,41,9.50
2017,10,30,05,42,9.50
2017,10,30,05,43,9.40
2017,10,30,05,44,9.40
2017,10,30,05,45,9.40
2017,10,30,05,46,9.40
2017,10,30,05,47,9.40
2017,10,30,05,48,9.40
2017,10,30,05,49,9.40
2017,10,30,05,50,9.40
2017,10,30,05,51,9.40
2017,10,30,05,52,9.40
2017,10,30,05,53,9.40
2017,10,30,05,54,9.40
2017,10,30,05,55,9.40
2017,10,30,05,56,9.50
2017,10,30,05,57,9.50
2017,10,30,05,58,9.50
2017,10,30,05,59,9.60
2017,10,30,06,00,9.60
2017,10,30,06,01,9.60
2017,10,30,06,02,9.60
2017,10,30,06,03,9.60
2017,10,30,06,04,9.60
2017,10,30,06,05,9.60
2017,10,30,06,06,9.60
2017,10,30,06,07,9.60
2017,10,30,06,08,9.60
2017,10,30,06,09,9.60
2017,10,30,06,10,9.50
2017,10,30,06,11,9.50
2017,10,30,06,12,9.50
2017,10,30,06,13,9.40
2017,10,30,06,14,9.40
2017,10,30,06,15,9.40
2017,10,30,06,16,9.40
2017,10,30,06,17,9.30
2017,10,30,06,18,9.40
2017,10,30,06,19,9.40
2017,10,30,06,20,9.40
2017,10,30,06,21,9.40
2017,10,30,06,22,9.50
2017,10,30,06,23,9.60
2017,10,30,06,24,9.60
2017,10,30,06,25,9.60
2017,10,30,06,26,9.60
2017,10,30,06,27,9.60
2017,10,30,06,28,9.60
2017,10,30,06,29,9.60
2017,10,30,06,30,9.50
2017,10,30,06,31,9.50
2017,10,30,06,32,9.50
2017,10,30,06,33,9.50
2017,10,30,06,34,9.50
2017,10,30,06,35,9.50
2017,10,30,06,36,9.50
2017,10,30,06,37,9.50
2017,10,30,06,38,9.50
2017,10,30,06,39,9.50
2017,10,30,06,40,9.50
2017,10,30,06,41,9.50
2017,10,30,06,42,9.50
2017,10,30,06,43,9.50
2017,10,30,06,44,9.50
2017,10,30,06,45,9.50
2017,10,30,06,46,9.50
2017,10,30,06,47,9.40
2017,10,30,06,48,9.40
2017,10,30,06,49,9.40
2017,10,30,06,50,9.40
2017,10,30,06,51,9.50
2017,10,30,06,52,9.50
2017,10,30,06,53,9.60
2017,10,30,06,54,9.60
2017,10,30,06,55,9.60
2017,10,30,06,56,9.60
2017,10,30,06,57,9.60
2017,10,30,06,58,9.60
2017,10,30,06,59,9.60
2017,10,30,07,00,9.60
2017,10,30,07,01,9.60
2017,10,30,07,02,9.60
2017,10,30,07,03,9.60
2017,10,30,07,04,9.60
2017,10,30,07,05,9.60
2017,10,30,07,06,9.70
2017,10,30,07,07,9.70
2017,10,30,07,08,9.60
2017,10,30,07,09,9.60
2017,10,30,07,10,9.50
2017,10,30,07,11,9.50
2017,10,30,07,12,9.50
2017,10,30,07,13,9.40
2017,10,30,07,14,9.40
2017,10,30,07,15,9.30
2017,10,30,07,16,9.30
2017,10,30,07,17,9.30
2017,10,30,07,18,9.20
2017,10,30,07,19,9.20
2017,10,30,07,20,9.10
2017,10,30,07,21,9.10
2017,10,30,07,22,9.10
2017,10,30,07,23,9.10
2017,10,30,07,24,9.10
2017,10,30,07,25,9.10
2017,10,30,07,26,9.00
2017,10,30,07,27,9.00
2017,10,30,07,28,9.00
2017,10,30,07,29,9.00
2017,10,30,07,30,8.90
2017,10,30,07,31,8.90
2017,10,30,07,32,8.90
2017,10,30,07,33,9.00
2017,10,30,07,34,8.90
2017,10,30,07,35,8.90
2017,10,30,07,36,8.90
2017,10,30,07,37,8.90
2017,10,30,07,38,8.90
2017,10,30,07,39,8.90
2017,10,30,07,40,8.80
2017,10,30,07,41,8.80
2017,10,30,07,42,8.80
2017,10,30,07,43,8.80
2017,10,30,07,44,8.80
2017,10,30,07,45,8.80
2017,10,30,07,46,8.80
2017,10,30,07,47,8.80
2017,10,30,07,48,8.80
2017,10,30,07,49,8.70
2017,10,30,07,50,8.70
2017,10,30,07,51,8.70
2017,10,30,07,52,8.70
2017,10,30,07,53,8.70
2017,10,30,07,54,8.70
2017,10,30,07,55,8.70
2017,10,30,07,56,8.70
2017,10,30,07,57,8.70
2017,10,30,07,58,8.80
2017,10,30,07,59,8.80
2017,10,30,08,00,8.80
2017,10,30,08,01,8.80
2017,10,30,08,02,8.80
2017,10,30,08,03,8.80
2017,10,30,08,04,8.80
2017,10,30,08,05,8.80
2017,10,30,08,06,8.70
2017,10,30,08,07,8.70
2017,10,30,08,08,8.70
2017,10,30,08,09,8.60
2017,10,30,08,10,8.60
2017,10,30,08,11,8.60
2017,10,30,08,12,8.60
2017,10,30,08,13,8.60
2017,10,30,08,14,8.60
2017,10,30,08,15,8.60
2017,10,30,08,16,8.60
2017,10,30,08,17,8.60
2017,10,30,08,18,8.60
2017,10,30,08,19,8.70
2017,10,30,08,20,8.70
2017,10,30,08,21,8.70
2017,10,30,08,22,8.70
2017,10,30,08,23,8.70
2017,10,30,08,24,8.70
2017,10,30,08,25,8.70
2017,10,30,08,26,8.80
2017,10,30,08,27,8.80
2017,10,30,08,28,8.80
2017,10,30,08,29,8.80
2017,10,30,08,30,8.80
2017,10,30,08,31,8.80
2017,10,30,08,32,8.80
2017,10,30,08,33,8.80
2017,10,30,08,34,8.80
2017,10,30,08,35,8.80
2017,10,30,08,36,8.80
2017,10,30,08,37,8.80
2017,10,30,08,38,8.90
2017,10,30,08,39,8.80
2017,10,30,08,40,8.80
2017,10,30,08,41,8.80
2017,10,30,08,42,8.80
2017,10,30,08,43,8.80
2017,10,30,08,44,8.80
2017,10,30,08,45,8.80
2017,10,30,08,46,8.80
2017,10,30,08,47,8.80
2017,10,30,08,48,8.80
2017,10,30,08,49,8.80
2017,10,30,08,50,8.80
2017,10,30,08,51,8.80
2017,10,30,08,52,8.80
2017,10,30,08,53,8.80
2017,10,30,08,54,8.80
2017,10,30,08,55,8.80
2017,10,30,08,56,8.90
2017,10,30,08,57,8.90
2017,10,30,08,58,9.00
2017,10,30,08,59,9.00
2017,10,30,09,00,9.00
2017,10,30,09,01,9.00
2017,10,30,09,02,9.10
2017,10,30,09,03,9.10
2017,10,30,09,04,9.20
2017,10,30,09,05,9.30
2017,10,30,09,06,9.30
2017,10,30,09,07,9.30
2017,10,30,09,08,9.30
2017,10,30,09,09,9.40
2017,10,30,09,10,9.40
2017,10,30,09,11,9.40
2017,10,30,09,12,9.50
2017,10,30,09,13,9.50
2017,10,30,09,14,9.50
2017,10,30,09,15,9.50
2017,10,30,09,16,9.50
2017,10,30,09,17,9.60
2017,10,30,09,18,9.60
2017,10,30,09,19,9.70
2017,10,30,09,20,9.70
2017,10,30,09,21,9.70
2017,10,30,09,22,9.80
2017,10,30,09,23,9.80
2017,10,30,09,24,9.80
2017,10,30,09,25,9.90
2017,10,30,09,26,10.00
2017,10,30,09,27,10.10
2017,10,30,09,28,10.20
2017,10,30,09,29,10.20
2017,10,30,09,30,10.30
2017,10,30,09,31,10.40
2017,10,30,09,32,10.40
2017,10,30,09,33,10.50
2017,10,30,09,34,10.50
2017,10,30,09,35,10.50
2017,10,30,09,36,10.60
2017,10,30,09,37,10.60
2017,10,30,09,38,10.70
2017,10,30,09,39,10.70
2017,10,30,09,40,10.80
2017,10,30,09,41,10.80
2017,10,30,09,42,10.90
2017,10,30,09,43,10.90
2017,10,30,09,44,11.00
2017,10,30,09,45,11.00
2017,10,30,09,46,11.00
2017,10,30,09,47,11.10
2017,10,30,09,48,11.10
2017,10,30,09,49,11.20
2017,10,30,09,50,11.20
2017,10,30,09,51,11.30
2017,10,30,09,52,11.30
2017,10,30,09,53,11.30
2017,10,30,09,54,11.30
2017,10,30,09,55,11.30
2017,10,30,09,56,11.30
2017,10,30,09,57,11.30
2017,10,30,09,58,11.30
2017,10,30,09,59,11.40
2017,10,30,10,00,11.40
2017,10,30,10,01,11.40
2017,10,30,10,02,11.40
2017,10,30,10,03,11.40
2017,10,30,10,04,11.40
2017,10,30,10,05,11.40
2017,10,30,10,06,11.40
2017,10,30,10,07,11.40
2017,10,30,10,08,11.40
2017,10,30,10,09,11.40
2017,10,30,10,10,11.40
2017,10,30,10,11,11.50
2017,10,30,10,12,11.50
2017,10,30,10,13,11.50
2017,10,30,10,14,11.50
2017,10,30,10,15,11.60
2017,10,30,10,16,11.60
2017,10,30,10,17,11.60
2017,10,30,10,18,11.70
2017,10,30,10,19,11.70
2017,10,30,10,20,11.70
2017,10,30,10,21,11.70
2017,10,30,10,22,11.70
2017,10,30,10,23,11.80
2017,10,30,10,24,11.80
2017,10,30,10,25,11.80
2017,10,30,10,26,11.90
2017,10,30,10,27,11.90
2017,10,30,10,28,12.00
2017,10,30,10,29,12.00
2017,10,30,10,30,12.00
2017,10,30,10,31,12.10
2017,10,30,10,32,12.10
2017,10,30,10,33,12.10
2017,10,30,10,34,12.10
2017,10,30,10,35,12.10
2017,10,30,10,36,12.20
2017,10,30,10,37,12.20
2017,10,30,10,38,12.20
2017,10,30,10,39,12.20
2017,10,30,10,40,12.20
2017,10,30,10,41,12.20
2017,10,30,10,42,12.20
2017,10,30,10,43,12.30
2017,10,30,10,44,12.30
2017,10,30,10,45,12.40
2017,10,30,10,46,12.60
2017,10,30,10,47,12.70
2017,10,30,10,48,12.70
2017,10,30,10,49,12.80
2017,10,30,10,50,12.80
2017,10,30,10,51,12.90
2017,10,30,10,52,12.90
2017,10,30,10,53,12.90
2017,10,30,10,54,12.90
2017,10,30,10,55,12.90
2017,10,30,10,56,13.00
2017,10,30,10,57,13.00
2017,10,30,10,58,13.10
2017,10,30,10,59,13.20
2017,10,30,11,00,13.30
2017,10,30,11,01,13.30
2017,10,30,11,02,13.40
2017,10,30,11,03,13.40
2017,10,30,11,04,13.40
2017,10,30,11,05,13.40
2017,10,30,11,06,13.40
2017,10,30,11,07,13.30
2017,10,30,11,08,13.20
2017,10,30,11,09,13.10
2017,10,30,11,10,13.10
2017,10,30,11,11,13.00
2017,10,30,11,12,13.00
2017,10,30,11,13,13.00
2017,10,30,11,14,13.10
2017,10,30,11,15,13.10
2017,10,30,11,16,13.20
2017,10,30,11,17,13.20
2017,10,30,11,18,13.30
2017,10,30,11,19,13.30
2017,10,30,11,20,13.40
2017,10,30,11,21,13.50
2017,10,30,11,22,13.50
2017,10,30,11,23,13.60
2017,10,30,11,24,13.60
2017,10,30,11,25,13.60
2017,10,30,11,26,13.70
2017,10,30,11,27,13.70
2017,10,30,11,28,13.70
2017,10,30,11,29,13.70
2017,10,30,11,30,13.70
2017,10,30,11,31,13.80
2017,10,30,11,32,13.70
2017,10,30,11,33,13.70
2017,10,30,11,34,13.60
2017,10,30,11,35,13.60
2017,10,30,11,36,13.60
2017,10,30,11,37,13.50
2017,10,30,11,38,13.50
2017,10,30,11,39,13.50
2017,10,30,11,40,13.50
2017,10,30,11,41,13.60
2017,10,30,11,42,13.70
2017,10,30,11,43,13.70
2017,10,30,11,44,13.80
2017,10,30,11,45,13.80
2017,10,30,11,46,13.80
2017,10,30,11,47,13.80
2017,10,30,11,48,13.80
2017,10,30,11,49,13.80
2017,10,30,11,50,13.80
2017,10,30,11,51,13.80
2017,10,30,11,52,13.70
2017,10,30,11,53,13.70
2017,10,30,11,54,13.70
2017,10,30,11,55,13.70
2017,10,30,11,56,13.80
2017,10,30,11,57,13.70
2017,10,30,11,58,13.70
2017,10,30,11,59,13.70
2017,10,30,12,00,13.60
2017,10,30,12,01,13.60
2017,10,30,12,02,13.60
2017,10,30,12,03,13.60
2017,10,30,12,04,13.50
2017,10,30,12,05,13.40
2017,10,30,12,06,13.40
2017,10,30,12,07,13.50
2017,10,30,12,08,13.50
2017,10,30,12,09,13.60
2017,10,30,12,10,13.60
2017,10,30,12,11,13.60
2017,10,30,12,12,13.50
2017,10,30,12,13,13.50
2017,10,30,12,14,13.50
2017,10,30,12,15,13.50
2017,10,30,12,16,13.40
2017,10,30,12,17,13.30
2017,10,30,12,18,13.30
2017,10,30,12,19,13.30
2017,10,30,12,20,13.40
2017,10,30,12,21,13.40
2017,10,30,12,22,13.40
2017,10,30,12,23,13.50
2017,10,30,12,24,13.50
2017,10,30,12,25,13.50
2017,10,30,12,26,13.50
2017,10,30,12,27,13.60
2017,10,30,12,28,13.60
2017,10,30,12,29,13.60
2017,10,30,12,30,13.50
2017,10,30,12,31,13.50
2017,10,30,12,32,13.60
2017,10,30,12,33,13.60
2017,10,30,12,34,13.60
2017,10,30,12,36,13.60
2017,10,30,12,37,13.70
2017,10,30,12,38,13.70
2017,10,30,12,39,13.70
2017,10,30,12,40,13.80
2017,10,30,12,41,13.80
2017,10,30,12,42,13.90
2017,10,30,12,43,14.00
2017,10,30,12,44,14.00
2017,10,30,12,45,14.10
2017,10,30,12,46,14.10
2017,10,30,12,47,14.00
2017,10,30,12,48,14.00
2017,10,30,12,49,13.90
2017,10,30,12,50,13.90
2017,10,30,12,51,13.90
2017,10,30,12,52,14.00
2017,10,30,12,53,13.90
2017,10,30,12,54,14.00
2017,10,30,12,55,14.10
2017,10,30,12,56,14.10
2017,10,30,12,57,14.00
2017,10,30,12,58,14.00
2017,10,30,12,59,13.90
2017,10,30,13,00,13.90
2017,10,30,13,01,13.80
2017,10,30,13,02,13.80
2017,10,30,13,03,13.80
2017,10,30,13,04,13.80
2017,10,30,13,05,13.70
2017,10,30,13,06,13.70
2017,10,30,13,07,13.70
2017,10,30,13,08,13.70
2017,10,30,13,09,13.60
2017,10,30,13,10,13.60
2017,10,30,13,11,13.60
2017,10,30,13,12,13.60
2017,10,30,13,13,13.60
2017,10,30,13,14,13.70
2017,10,30,13,15,13.70
2017,10,30,13,16,13.80
2017,10,30,13,17,13.80
2017,10,30,13,18,13.80
2017,10,30,13,19,13.90
2017,10,30,13,20,14.10
2017,10,30,13,21,14.20
2017,10,30,13,22,14.20
2017,10,30,13,23,14.20
2017,10,30,13,24,14.30
2017,10,30,13,25,14.40
2017,10,30,13,26,14.40
2017,10,30,13,27,14.40
2017,10,30,13,28,14.40
2017,10,30,13,29,14.50
2017,10,30,13,30,14.40
2017,10,30,13,31,14.30
2017,10,30,13,32,14.20
2017,10,30,13,33,14.20
2017,10,30,13,34,14.20
2017,10,30,13,35,14.20
2017,10,30,13,36,14.30
2017,10,30,13,37,14.40
2017,10,30,13,38,14.50
2017,10,30,13,39,14.60
2017,10,30,13,40,14.60
2017,10,30,13,41,14.50
2017,10,30,13,42,14.40
2017,10,30,13,43,14.40
2017,10,30,13,44,14.30
2017,10,30,13,45,14.30
2017,10,30,13,46,14.30
2017,10,30,13,47,14.30
2017,10,30,13,48,14.30
2017,10,30,13,49,14.30
2017,10,30,13,50,14.20
2017,10,30,13,51,14.30
2017,10,30,13,52,14.40
2017,10,30,13,53,14.40
2017,10,30,13,54,14.30
2017,10,30,13,55,14.20
2017,10,30,13,56,14.20
2017,10,30,13,57,14.10
2017,10,30,13,58,14.00
2017,10,30,13,59,14.00
2017,10,30,14,00,14.00
2017,10,30,14,01,14.00
2017,10,30,14,02,14.00
2017,10,30,14,03,14.10
2017,10,30,14,04,14.20
2017,10,30,14,05,14.20
2017,10,30,14,06,14.20
2017,10,30,14,07,14.20
2017,10,30,14,08,14.20
2017,10,30,14,09,14.20
2017,10,30,14,10,14.10
2017,10,30,14,11,14.10
2017,10,30,14,12,14.10
2017,10,30,14,13,14.00
2017,10,30,14,14,14.00
2017,10,30,14,15,14.00
2017,10,30,14,16,14.00
2017,10,30,14,17,13.90
2017,10,30,14,18,13.90
2017,10,30,14,19,13.80
2017,10,30,14,20,13.80
2017,10,30,14,21,13.80
2017,10,30,14,22,13.80
2017,10,30,14,23,13.90
2017,10,30,14,24,13.90
2017,10,30,14,25,14.00
2017,10,30,14,26,14.10
2017,10,30,14,27,14.20
2017,10,30,14,28,14.30
2017,10,30,14,29,14.40
2017,10,30,14,30,14.50
2017,10,30,14,31,14.60
2017,10,30,14,32,14.70
2017,10,30,14,33,14.80
2017,10,30,14,34,14.80
2017,10,30,14,35,14.70
2017,10,30,14,36,14.70
2017,10,30,14,37,14.60
2017,10,30,14,38,14.50
2017,10,30,14,39,14.40
2017,10,30,14,40,14.30
2017,10,30,14,41,14.30
2017,10,30,14,42,14.20
2017,10,30,14,43,14.10
2017,10,30,14,44,14.00
2017,10,30,14,45,14.00
2017,10,30,14,46,13.90
2017,10,30,14,47,13.90
2017,10,30,14,48,13.90
2017,10,30,14,49,13.80
2017,10,30,14,50,13.80
2017,10,30,14,51,13.80
2017,10,30,14,52,13.80
2017,10,30,14,53,13.70
2017,10,30,14,54,13.70
2017,10,30,14,55,13.80
2017,10,30,14,56,13.80
2017,10,30,14,57,13.80
2017,10,30,14,58,13.80
2017,10,30,14,59,13.70
2017,10,30,15,00,13.80
2017,10,30,15,01,13.80
2017,10,30,15,02,13.90
2017,10,30,15,03,14.00
2017,10,30,15,04,14.10
2017,10,30,15,05,14.20
2017,10,30,15,06,14.30
2017,10,30,15,07,14.40
2017,10,30,15,08,14.60
2017,10,30,15,09,14.70
2017,10,30,15,10,14.70
2017,10,30,15,11,14.70
2017,10,30,15,12,14.70
2017,10,30,15,13,14.80
2017,10,30,15,14,14.80
2017,10,30,15,15,14.90
2017,10,30,15,16,14.90
2017,10,30,15,17,14.80
2017,10,30,15,18,14.70
2017,10,30,15,19,14.50
2017,10,30,15,20,14.40
2017,10,30,15,21,14.30
2017,10,30,15,22,14.40
2017,10,30,15,23,14.40
2017,10,30,15,24,14.40
2017,10,30,15,25,14.30
2017,10,30,15,26,14.20
2017,10,30,15,27,14.20
2017,10,30,15,28,14.00
2017,10,30,15,29,13.80
2017,10,30,15,30,13.60
2017,10,30,15,31,13.50
2017,10,30,15,32,13.40
2017,10,30,15,33,13.30
2017,10,30,15,34,13.30
2017,10,30,15,35,13.20
2017,10,30,15,36,13.20
2017,10,30,15,37,13.10
2017,10,30,15,38,13.20
2017,10,30,15,39,13.30
2017,10,30,15,40,13.40
2017,10,30,15,41,13.40
2017,10,30,15,42,13.40
2017,10,30,15,43,13.40
2017,10,30,15,44,13.50
2017,10,30,15,45,13.60
2017,10,30,15,46,13.70
2017,10,30,15,47,13.80
2017,10,30,15,48,14.00
2017,10,30,15,49,14.10
2017,10,30,15,50,14.20
2017,10,30,15,51,14.30
2017,10,30,15,52,14.30
2017,10,30,15,53,14.30
2017,10,30,15,54,14.30
2017,10,30,15,55,14.30
2017,10,30,15,56,14.20
2017,10,30,15,57,14.10
2017,10,30,15,58,14.10
2017,10,30,15,59,14.00
2017,10,30,16,00,13.90
2017,10,30,16,01,13.80
2017,10,30,16,02,13.80
2017,10,30,16,03,13.70
2017,10,30,16,04,13.70
2017,10,30,16,05,13.70
2017,10,30,16,06,13.70
2017,10,30,16,07,13.80
2017,10,30,16,08,13.80
2017,10,30,16,09,13.80
2017,10,30,16,10,13.80
2017,10,30,16,11,13.70
2017,10,30,16,12,13.50
2017,10,30,16,13,13.40
2017,10,30,16,14,13.20
2017,10,30,16,15,13.10
2017,10,30,16,16,13.00
2017,10,30,16,17,12.90
2017,10,30,16,18,12.80
2017,10,30,16,19,12.70
2017,10,30,16,20,12.70
2017,10,30,16,21,12.70
2017,10,30,16,22,12.60
2017,10,30,16,23,12.60
2017,10,30,16,24,12.50
2017,10,30,16,25,12.50
2017,10,30,16,26,12.40
2017,10,30,16,27,12.30
2017,10,30,16,28,12.20
2017,10,30,16,29,12.10
2017,10,30,16,30,12.00
2017,10,30,16,31,11.90
2017,10,30,16,32,11.80
2017,10,30,16,33,11.80
2017,10,30,16,34,11.70
2017,10,30,16,35,11.60
2017,10,30,16,36,11.60
2017,10,30,16,37,11.50
2017,10,30,16,38,11.50
2017,10,30,16,39,11.40
2017,10,30,16,40,11.40
2017,10,30,16,41,11.40
2017,10,30,16,42,11.30
2017,10,30,16,43,11.30
2017,10,30,16,44,11.30
2017,10,30,16,45,11.30
2017,10,30,16,46,11.30
2017,10,30,16,47,11.20
2017,10,30,16,48,11.20
2017,10,30,16,49,11.20
2017,10,30,16,50,11.20
2017,10,30,16,51,11.20
2017,10,30,16,52,11.20
2017,10,30,16,53,11.10
2017,10,30,16,54,11.10
2017,10,30,16,55,11.10
2017,10,30,16,56,11.00
2017,10,30,16,57,11.00
2017,10,30,16,58,11.00
2017,10,30,16,59,11.00
2017,10,30,17,00,11.00
2017,10,30,17,01,11.00
2017,10,30,17,02,11.00
2017,10,30,17,03,11.00
2017,10,30,17,04,10.90
2017,10,30,17,05,10.90
2017,10,30,17,06,10.90
2017,10,30,17,07,10.90
2017,10,30,17,08,10.80
2017,10,30,17,09,10.70
2017,10,30,17,10,10.70
2017,10,30,17,11,10.70
2017,10,30,17,12,10.60
2017,10,30,17,13,10.60
2017,10,30,17,14,10.60
2017,10,30,17,15,10.60
2017,10,30,17,16,10.60
2017,10,30,17,17,10.60
2017,10,30,17,18,10.60
2017,10,30,17,19,10.60
2017,10,30,17,20,10.60
2017,10,30,17,21,10.60
2017,10,30,17,22,10.60
2017,10,30,17,23,10.60
2017,10,30,17,24,10.60
2017,10,30,17,25,10.50
2017,10,30,17,26,10.50
2017,10,30,17,27,10.50
2017,10,30,17,28,10.50
2017,10,30,17,29,10.60
2017,10,30,17,30,10.60
2017,10,30,17,31,10.60
2017,10,30,17,32,10.60
2017,10,30,17,33,10.60
2017,10,30,17,34,10.60
2017,10,30,17,35,10.50